Regional Weather Roundup
Issued by NWS Goodland, KS

Home | Current Version | Previous Version | Text Only | Print | Product List | Glossary On
Versions: 1 2 3 4 5 6 7 8 9 10 11 12 13 14 15 16 17 18 19 20 21 22 23 24 25 26 27 28 29 30 31 32 33 34 35 36 37 38 39 40 41 42 43 44 45 46 47 48 49 50
000
ASUS43 KGLD 241108
RWRGLD

GOODLAND FORECAST AREA HOURLY WEATHER ROUNDUP
NATIONAL WEATHER SERVICE GOODLAND KS
500 AM MDT FRI MAR 24 2017

...OFFICIAL OBSERVATIONS...

CITY           SKY/WX    TMP DP  RH WIND       PRES   REMARKS
GOODLAND KS    CLOUDY    49  49 100 NE28G40   29.61S FOG
HILL CITY KS   CLOUDY    56  54  93 E12       29.65R
IMPERIAL NEB   LGT RAIN  46  44  93 N23G33    29.76R FOG
MCCOOK NEB     CLOUDY    50  49  96 NE24G37   29.71R
AKRON CO       RAIN      39  38  96 N32G41    29.79R FOG
BURLINGTON CO  RAIN      48  47  96 NE33G49   29.60R VSB 1/2
LIMON CO       FOG       32  32 100 N35G51    29.71S VSB 1   WCI  17
$$

...UNOFFICIAL OBSERVATIONS...

CITY           SKY/WX    TMP DP  RH WIND       PRES   REMARKS
LENORA KS        N/A     53  32  45 N9          N/A
NORTON KS      CLOUDY    54  48  82 N15G24    29.66S
SHARON SPRINGS   N/A     42  37  82 S5G12       N/A
TRENTON NEB      N/A     47  32  56 N16G23      N/A
YUMA CO        LGT RAIN  41  41 100 N26G39    29.74R
$$



USA.gov is the U.S. government's official web portal to all federal, state and local government web resources and services.